Dauntless Aviation
Airports Europe Czech Republic
LKPO
PRV

Prerov

Prerov, CZECH REPUBLIC

Airport Info
Suggest Updated Information for this Airport

Location

Latitude / Longitude: 49°25'32"N / 17°24'16"E
  49°25.548'N / 17°24.282'E
  49.4258 / 17.4047

Nearby radio navigation aids

CK PREROV NDB. 63.6° 2.8nm from CK to field.

Runway Information

Runway 06 /24

Dimensions: 8202 x 196 ft.
Surface: ASP
 
Runway 06
Runway 24
Latitude: 49.421419 49.430439
Longitude: 17.389275 17.420478
Elevation: 663 ft. 663 ft.
Runway true heading: 64.6 244.6
 

Instrument Procedures

  Aerodrome Chart

IAPs (Instrument Approach Procedures)

  ILS/DME Rwy 06
  NDB/DME (GPS) or PAR Rwy 06
  NDB (GPS) or PAR Rwy 06
  POLOM 3A

Departure Procedures

  Instrument Departure Chart HLV 1A - 2Z
  Instrument Departure Chart LUTIM 2A - 2Z
  Instrument Departure Chart MORKO 2Z
  Instrument Departure Chart POLOM 3A
Satellite photo at:
Airport distance calculator
From:
Weather Reports

METAR

LKMT
31.3nm NE
LKMT 092300Z 21009KT 9000 SCT014 OVC038 05/03 Q1026 NOSIG
LKTB
33.3nm SW
LKTB 092300Z 26004KT 230V310 9999 BKN023 03/03 Q1027 NOSIG

TAF

LKMT
31.3nm NE
TAF LKMT 091700Z 0918/1100 21016KT 9999 SCT040 TEMPO 0918/0921 22018G28KT 9999 BKN030 TEMPO 0922/1004 21008KT 4000 BR NSC TEMPO 1004/1018 22014G24KT
LKTB
33.3nm SW
TAF LKTB 091700Z 0918/1100 VRB02KT 4000 BR SCT003 BKN020 TEMPO 0918/1000 2000 BR BKN003 BECMG 1000/1002 1200 BR OVC002 TEMPO 1002/1008 0700 FG OVC001 PROB30 TEMPO 1003/1007 0300 FG BECMG 1008/1010 4000 BR BKN004 TEMPO 1010/1018 7000 SCT004 BKN010
Safelog

 

Dauntless Aviation

© 2007-2016 Dauntless Aviation, all rights reserved
Information provided via PilotNav comes from a variety of official and unofficial data sources. As errors are possible, do not use PilotNav for primary flight planning purposes. Verify any information that you receive via PilotNav with current and canonical charts and other official documents. The material in this database is subject to database copyrights held by Dauntless Aviation and may not be copied without the express permission of Dauntless Aviation - licenses for use of part of all of this data are available for purchase; enquire via the Dauntless Aviation helpdesk. A number of mechanisms and markers exist in the database to protect against and identify infringement / copyright. Automated queries against this website are stictly prohibited, and all activity is logged and analyzed.